www.pogodaiklimat.ru

Погода и климат >> Архив погоды >> Иран >> Бендер-Аббас


ПОГОДА в Бендер-Аббасе

  • Прогноз погоды в Бендер-Аббасе
  • Монитор погоды в Бендер-Аббасе

АРХИВ ПОГОДЫ в Бендер-Аббасе

Время (UTC), дата Ветер
(напр.,м/с)
 
Видим.   Явления Облачность Т
(С)
Тd
(С)
f
(%)
Тe
(С)
Тes
(С)
Комфортность P
(гПа)
Po
(гПа)
Тmin
(С)
Tmax
(С)
R
(мм)
R24
(мм)
S
(см)
12 12.01 СВ 2 5000 м мгла 9/0
[Cs]
+26.1 +2.1 21 +25 +26 комфорт 1016.1 1015.0
15 12.01 З 2 7000 м мгла 6/0
[Cs]
+17.9 +4.7 42 +18 +18 1017.6 1016.5 +26.3
18 12.01 СЗ 2 6000 м мгла 5/0
[Cs]
+16.3 +4.3 45 +17 +17 1018.3 1017.1
21 12.01 штиль 0 8000 м мгла 4/0
[Ci fib]
+14.0 +0.8 41 +14 +14 1017.5 1016.4
00 13.01 СЗ 2 8000 м мгла ясно +13.3 +0.3 41 +13 +13 1018.0 1016.9
03 13.01 1 10 км 1/0
[Ci fib]
+11.6 +2.2 52 +12 +12 1019.0 1017.8 +10.8
06 13.01 СВ 3 8000 м мгла 8/0
[Cs]
+22.0 -0.6 22 +21 +26 комфорт 1021.1 1019.9
09 13.01 С 2 10 км 3/0
[Ci fib]
+27.2 -0.7 16 +25 +34 комфорт 1018.2 1017.1
12 13.01 ЮЗ 3 10 км 5/0
[Ci fib]
+25.3 +6.2 29 +25 +26 комфорт 1017.3 1016.1
15 13.01 ЮЗ 2 10 км 3/0
[Ci fib]
+19.4 +7.7 47 +21 +21 комфорт 1018.2 1017.0 +27.5
18 13.01 С 2 10 км 3/0
[Ac trans]
+17.8 +7.5 51 +18 +18 1019.5 1018.4
21 13.01 С 2 10 км 4/0
[Ci fib]
+16.2 +6.3 52 +16 +16 1019.0 1017.8
00 14.01 С 2 8000 м мгла 1/1 900 м
[Sc]
+17.9 +7.1 49 +18 +18 1018.8 1017.6
03 14.01 С 3 8000 м мгла 6/4 900 м
[Sc Cs]
+18.1 +9.8 58 +18 +18 1019.2 1018.0 +15.8
06 14.01 СВ 2 6000 м мгла 9/5 900 м
[Sc Cs]
+23.2 +13.4 54 +26 +29 жарко 1021.6 1020.5
09 14.01 ЮВ 4 6000 м мгла 9/5 900 м
[Sc Cs]
+24.0 +15.0 57 +27 +29 жарко 1019.6 1018.4
12 14.01 Ю 4 6000 м мгла 9/1 600 м
[Cu hum Cs]
+24.0 +17.2 66 +28 +29 душно 1018.0 1016.8
15 14.01 Ю 3 7000 м мгла 5/1 600 м
[Cu hum Cs]
+22.1 +17.9 77 +27 +27 душно 1018.6 1017.4 +24.9
18 14.01 1 6000 м дымка 3/0
[Cs]
+19.2 +16.5 84 +22 +22 комфорт 1019.8 1018.6
21 14.01 С 2 6000 м дымка 1/0
[Ac trans]
+17.9 +15.9 88 +18 +18 1019.4 1018.3
00 15.01 С 2 5000 м дымка 3/3 900 м
[Sc]
+17.7 +16.0 90 +18 +18 1019.4 1018.3
03 15.01 С 2 5000 м дымка 3/3 900 м
[Sc]
+17.7 +16.0 90 +18 +18 1019.4 1018.3
06 15.01 СВ 2 4000 м мгла 9/4 900 м
[Sc Cs]
+22.3 +16.7 71 +27 +30 душно 1021.2 1020.1
09 15.01 Ю 4 4000 м мгла 9/3 900 м
[Sc Cs]
+25.2 +18.4 66 +30 +34 душно 1019.1 1018.0
12 15.01 Ю 4 4000 м мгла 6/0
[Cs]
+25.3 +16.9 60 +29 +30 душно 1017.2 1016.0
15 15.01 ЮЗ 4 4000 м мгла 6/0
[Cs]
+23.3 +18.0 72 +29 +29 душно 1017.7 1016.5 +26.2
18 15.01 ЮЗ 2 5000 м мгла 5/0
[Cs]
+22.1 +18.3 79 +27 +27 душно 1017.9 1016.7
21 15.01 С 2 5000 м дымка 3/0
[Cs]
+19.0 +16.3 84 +21 +21 комфорт 1017.8 1016.6
00 16.01 С 2 5000 м дымка ясно +16.1 +14.5 90 +16 +16 1016.8 1015.6
03 16.01 С 2 5000 м дымка 1/1 900 м
[Sc]
+15.3 +14.1 93 +15 +15 1016.9 1015.7 +15.0
06 16.01 В 3 6000 м мгла 1/0
[Ci fib]
+22.5 +17.3 72 +27 +32 душно 1018.7 1017.5
09 16.01 Ю 5 6000 м мгла 1/0
[Ci fib]
+25.7 +18.5 64 +30 +35 душно 1016.2 1015.1
12 16.01 ЮЗ 4 5000 м мгла 1/0
[Ci fib]
+25.8 +17.5 60 +30 +31 душно 1014.2 1013.1
15 16.01 Ю 3 5000 м дымка ясно +22.6 +19.2 81 +29 +29 очень
душно
1015.0 1013.8 +26.7
18 16.01 СЗ 2 4000 м дымка ясно +19.4 +17.8 90 +22 +22 комфорт 1015.6 1014.4
21 16.01 штиль 0 4000 м дымка ясно +16.3 +14.7 90 +16 +16 1015.0 1013.8
00 17.01 СВ 2 4000 м дымка ясно +15.0 +13.4 90 +15 +15 1014.1 1012.9
03 17.01 1 3000 м дымка 1/0
[Ci fib]
+14.0 +13.1 94 +14 +14 1014.4 1013.2 +13.7
06 17.01 СВ 2 4000 м мгла 6/0 2000 м
[Ac trans Cs]
+22.1 +16.0 68 +26 +31 душно 1015.7 1014.5
09 17.01 Ю 4 6000 м мгла 5/0
[Cs]
+25.3 +17.3 61 +29 +35 душно 1014.0 1012.9
12 17.01 Ю 5 6000 м мгла 6/0
[Ac trans Ci fib]
+24.8 +20.4 77 +31 +32 очень
душно
1012.0 1010.8
15 17.01 ЮЗ 4 6000 м мгла 6/5 900 м
[Sc Ci fib]
+24.0 +17.8 68 +28 +28 душно 1012.5 1011.4 +25.6
18 17.01 ЮЗ 3 6000 м дымка 6/6 750 м
[Sc]
+23.2 +19.5 80 +30 +30 очень
душно
1013.4 1012.2
21 17.01 ЮЗ 2 5000 м дымка 5/5 900 м
[Sc]
+22.4 +19.8 85 +28 +28 душно 1013.5 1012.3
00 18.01 ЮЗ 3 5000 м сильный позёмок 5/5 900 м
[Sc]
+22.5 +19.4 83 +29 +29 очень
душно
1013.0 1011.9
03 18.01 ЮЗ 2 3500 м дымка 5/5 900 м
[Sc]
+20.1 +18.0 88 +24 +24 комфорт 1013.6 1012.5 +20.0
06 18.01 ЮЗ 6 4000 м мгла 3/0 2000 м
[Ac trans]
+22.8 +17.7 73 +28 +30 душно 1015.8 1014.7
09 18.01 ЮЗ 6 4000 м мгла 8/3 750 м
[Cu hum]
+23.8 +14.8 57 +27 +28 жарко 1014.4 1013.3
12 18.01 Ю 9 3000 м пыльный позёмок 9/9 900 м
[Sc]
+24.0 +14.0 54 +26 +26 жарко 1013.1 1012.0
15 18.01 ЮЗ 5 4000 м мгла 9/9 900 м
[Sc]
+21.6 +11.8 54 +24 +24 комфорт 1014.2 1013.1 +25.2
18 18.01 ЮЗ 3 5000 м мгла 8/8 900 м
[Sc]
+21.0 +11.9 56 +24 +24 комфорт 1015.0 1013.9
21 18.01 ЮЗ 3 5000 м мгла 3/3 900 м
[Sc diur, vesp]
+20.2 +13.2 64 +23 +23 комфорт 1014.9 1013.7
00 19.01 С 2 6000 м мгла 4/0
[Ci fib]
+15.0 +10.4 74 +15 +15 1014.6 1013.4
03 19.01 С 2 5000 м мгла 4/0
[Ci fib]
+13.6 +10.1 79 +13 +13 1015.3 1014.1 +13.0
06 19.01 ЮЗ 5 5000 м мгла 5/0
[Cs]
+20.6 +10.5 52 +22 +25 комфорт 1016.9 1015.7
09 19.01 ЮЗ 6 4500 м пыльный позёмок 6/0
[Ac trans]
+22.0 +11.9 53 +24 +27 комфорт 1015.0 1013.9

 

Местоположение метеостанции Бендер-Аббас (Иран): широта 27.22 долгота 56.37 высота над уровнем моря 10 м.

В архиве по умолчанию представлена погода в Бендер-Аббасе за последнюю неделю. Архивные данные за месяц целиком и за предыдущие месяцы, начиная с января 2011 года, Вы можете получить, выбрав интересующий диапазон дат из раскрывающегося списка и нажав кнопку "Ввод!".


*Определитесь, кто Вы:
робот инопланетянин человек

Внимание! Время в таблицах - всемирное. Для получения местного времени необходимо прибавить поправку, которая равна 3.5 ч.

Смотрите также архив погоды в соседних городах и на ближайших метеорологических станциях:

Погода в Эль-Хасабе (Оман) (113 км)
Погода в Эль-Хасаб аэропорту (Оман) (118 км)
Погода в Кехнудже (Иран) (155 км)
Погода в Бендер-Ленге (Иран) (169 км)
Погода в Дибе (Оман) (178 км)
Погода в Рай-эль-Хайма аэропорту (ОАЭ) (183 км)
Погода на Острове Абу-Муса (Иран) (218 км)
Погода в Бафте (Иран) (224 км)
Погода в Джаске (Иран) (225 км)
Погода в Шардже (ОАЭ) (227 км)

Пояснения к столбцам:

Ветер - указаны скорость ветра в м/с - средняя за 10 мин, порывы в срок и между сроками (в фигурных скобках) и направление, откуда дует ветер: С - северный, СВ - северо-восточный, В - восточный, ЮВ - юго-восточный, Ю - южный, ЮЗ - юго-западный, З - западный, СЗ - северо-западный.
Видимость - горизонтальная дальность видимости в метрах или километрах. При видимости от 1 до 10 км при отсутствии осадков обычно наблюдается дымка, при ухудшении видимости до 1 км и менее - туман. В сухую погоду видимость может ухудшаться дымом, пылью или мглою.
Явления - указаны атмосферные явления, наблюдавшиеся в срок или в последний час перед сроком; фигурными скобками обозначены явления, наблюдавшиеся между сроками (за 1-3 часа до срока); квадратными скобками обозначены град или гололедные отложения с указанием их диаметра в мм.
Облачность - указаны через наклонную черту общая и нижняя облачность в баллах и высота нижней границы облаков в метрах; квадратными скобками обозначены формы облаков: Ci - перистые, Cs - перисто-слоистые, Cc - перисто-кучевые, Ac - высококучевые, As - высокослоистые, Sc - слоисто-кучевые, Ns - слоисто-дождевые, Cu - кучевые, Cb - кучево-дождевые. Подробнее классификацию облаков см. в Атласе облаков (PDF).
T - Температура воздуха - температура, измеренная на высоте 2 м над землей.
Td - Температура точки росы - температура, при понижении до которой содержащийся в воздухе водяной пар достигнет насыщения.
f - Относительная влажность воздуха - влажноcть воздуха, измеренная на высоте 2 м над землей.
Te - Эффективная температура - температура, которую ощущает одетый по сезону человек в тени. Характеристика душности погоды. При расчете учитывается влияние влажности воздуха и скорости ветра на теплоощущения человека.
Tes - Эффективная температура на солнце - температура, которую ощущает человек, с поправкой на солнечный нагрев. Характеристика знойности погоды. Зависит от высоты солнца над горизонтом, облачности и скорости ветра. Ночью, в пасмурную погоду, а также при ветре 12 м/с и более поправка равна нулю.
P - Атмосферное давление - приведенное к уровню моря атмосферное давление.
Po - Атмосферное давление - измеренное на уровне метеостанции атмосферное давление.
Tmin - Минимальная температура - минимум температуры воздуха на высоте 2 м над землей.
Tmax - Максимальная температура - максимум температуры воздуха на высоте 2 м над землей.
R - Количество осадков - Количество выпавших осадков за период времени, мм. При наведении курсора мыши на число - период времени, за который выпало указанное количество осадков.
R24 - Количество осадков - Количество выпавших осадков за 24 часа, мм.
S - Снежный покров - Высота снежного покрова, см. При наведении курсора мыши на число - состояние снежного покрова и степень покрытия местности в баллах.